Weather History for Mount Pleasant, TX

Change the Weather History Date:

Sunday, October 2, 2011

  Actual Average (KGGG) Record (KGGG)
Temperature  
Mean Temperature 63 °F 70 °F  
Max Temperature 78 °F 82 °F 98 °F (1953)
Min Temperature 48 °F 59 °F 45 °F (1939)
Degree Days  
Heating Degree Days 2 1  
Month to date heating degree days 2  
Since 1 July heating degree days 8  
Cooling Degree Days 0 6  
Month to date cooling degree days 13  
Year to date cooling degree days 2292  
Growing Degree Days 13 (Base 50)    
Moisture  
Dew Point 35 °F    
Average Humidity 38    
Maximum Humidity 76    
Minimum Humidity 17    
Precipitation  
Precipitation 0.00 in 0.16 in 1.90 in (1913)
Month to date precipitation 0.33  
Year to date precipitation 34.32  
Snow  
Snow 0.00 in - - ()
Month to date snowfall  
Since 1 July snowfall  
Since 1 September snowfall  
Snow Depth -    
Sea Level Pressure  
Sea Level Pressure 30.23 in    
Wind  
Wind Speed 2 mph (ENE)    
Max Wind Speed 8 mph    
Max Gust Speed -    
Visibility 10 miles    
Events      
T = Trace of Precipitation, MM = Missing Value Source: NWS Daily Summary

Daily Weather History Graph

Daily Weather History Graph

Search for Another Location

Airport:

Trip Planner

Search our weather history database for the weather conditions in past years. The results will help you decide how hot, cold, wet, or windy it might be!

Date:

Astronomy

Oct. 02, 2011 Rise Set
Actual Time 7:14 AM CDT 7:03 PM CDT
Civil Twilight 6:49 AM CDT 7:28 PM CDT
Nautical Twilight 6:21 AM CDT 7:56 PM CDT
Astronomical Twilight 5:52 AM CDT 8:25 PM CDT
Moon 1:04 PM CDT (10/2) 11:20 PM CDT (10/2)
Length of Visible Light 12h 38m
Length of Day
11h 48m
Waxing Crescent, 35% of the Moon is Illuminated
Oct 2
Waxing Crescent
Oct 3
First Quarter
Oct 11
Full
Oct 19
Last Quarter
Oct 26
New

Hourly Weather History & Observations

Time (CDT) Temp. Dew Point Humidity Pressure Visibility Wind Dir Wind Speed Gust Speed Precip Events Conditions
12:15 AM 59.0 °F 35.6 °F 42% 30.20 in 10.0 mi Calm Calm - N/A   Clear
12:35 AM 59.0 °F 33.8 °F 39% 30.20 in 10.0 mi Calm Calm - N/A   Clear
12:55 AM 59.0 °F 33.8 °F 39% 30.21 in 10.0 mi Calm Calm - N/A   Clear
1:15 AM 57.2 °F 35.6 °F 44% 30.21 in 10.0 mi Calm Calm - N/A   Clear
1:35 AM 59.0 °F 35.6 °F 42% 30.21 in 10.0 mi ENE 3.5 mph - N/A   Clear
2:15 AM 57.2 °F 35.6 °F 44% 30.22 in 10.0 mi Calm Calm - N/A   Clear
2:35 AM 57.2 °F 35.6 °F 44% 30.22 in 10.0 mi East 3.5 mph - N/A   Clear
3:15 AM 55.4 °F 37.4 °F 51% 30.22 in 10.0 mi East 3.5 mph - N/A   Clear
3:35 AM 55.4 °F 37.4 °F 51% 30.22 in 10.0 mi Calm Calm - N/A   Clear
3:55 AM 53.6 °F 35.6 °F 51% 30.22 in 10.0 mi Calm Calm - N/A   Clear
4:15 AM 53.6 °F 37.4 °F 54% 30.23 in 10.0 mi Calm Calm - N/A   Clear
4:35 AM 53.6 °F 35.6 °F 51% 30.23 in 10.0 mi Calm Calm - N/A   Clear
4:55 AM 53.6 °F 37.4 °F 54% 30.23 in 10.0 mi Calm Calm - N/A   Clear
5:15 AM 51.8 °F 37.4 °F 58% 30.24 in 10.0 mi ENE 3.5 mph - N/A   Clear
5:35 AM 50.0 °F 37.4 °F 62% 30.24 in 10.0 mi NE 3.5 mph - N/A   Clear
5:55 AM 50.0 °F 39.2 °F 66% 30.25 in 10.0 mi NE 4.6 mph - N/A   Clear
6:15 AM 51.8 °F 37.4 °F 58% 30.25 in 10.0 mi Calm Calm - N/A   Clear
6:35 AM 51.8 °F 37.4 °F 58% 30.26 in 10.0 mi NNE 3.5 mph - N/A   Clear
6:55 AM 48.2 °F 39.2 °F 71% 30.27 in 10.0 mi NNE 4.6 mph - N/A   Clear
7:15 AM 48.2 °F 39.2 °F 71% 30.28 in 10.0 mi NE 3.5 mph - N/A   Clear
7:35 AM 48.2 °F 39.2 °F 71% 30.28 in 10.0 mi NE 3.5 mph - N/A   Clear
7:55 AM 48.2 °F 41.0 °F 76% 30.29 in 10.0 mi NNE 4.6 mph - N/A   Clear
8:15 AM 51.8 °F 41.0 °F 67% 30.29 in 10.0 mi Calm Calm - N/A   Clear
8:35 AM 53.6 °F 39.2 °F 58% 30.30 in 10.0 mi NE 3.5 mph - N/A   Clear
8:55 AM 55.4 °F 39.2 °F 54% 30.30 in 10.0 mi Calm Calm - N/A   Clear
9:15 AM 59.0 °F 39.2 °F 48% 30.30 in 10.0 mi ESE 4.6 mph - N/A   Clear
9:35 AM 62.6 °F 35.6 °F 37% 30.31 in 10.0 mi SE 6.9 mph - N/A   Clear
10:15 AM 64.4 °F 33.8 °F 32% 30.31 in 10.0 mi ESE 8.1 mph - N/A   Clear
10:35 AM 66.2 °F 35.6 °F 32% 30.31 in 10.0 mi SE 6.9 mph - N/A   Clear
10:55 AM 68.0 °F 35.6 °F 30% 30.30 in 10.0 mi SE 5.8 mph - N/A   Clear
11:15 AM 69.8 °F 35.6 °F 28% 30.30 in 10.0 mi SSE 6.9 mph - N/A   Clear
11:35 AM 69.8 °F 32.0 °F 25% 30.29 in 10.0 mi NE 4.6 mph - N/A   Clear
11:55 AM 71.6 °F 32.0 °F 23% 30.29 in 10.0 mi East 3.5 mph - N/A   Clear
12:15 PM 73.4 °F 32.0 °F 22% 30.28 in 10.0 mi SE 5.8 mph - N/A   Clear
12:35 PM 73.4 °F 32.0 °F 22% 30.27 in 10.0 mi East 3.5 mph - N/A   Clear
12:55 PM 73.4 °F 32.0 °F 22% 30.26 in 10.0 mi NNE 3.5 mph - N/A   Clear
1:15 PM 75.2 °F 32.0 °F 21% 30.25 in 10.0 mi Calm Calm - N/A   Clear
1:35 PM 75.2 °F 32.0 °F 21% 30.24 in 10.0 mi Calm Calm - N/A   Clear
2:15 PM 77.0 °F 32.0 °F 19% 30.22 in 10.0 mi NE 6.9 mph - N/A   Clear
2:35 PM 77.0 °F 32.0 °F 19% 30.21 in 10.0 mi East 4.6 mph - N/A   Clear
2:55 PM 78.8 °F 32.0 °F 18% 30.20 in 10.0 mi Calm Calm - N/A   Clear
3:15 PM 78.8 °F 32.0 °F 18% 30.20 in 10.0 mi ENE 3.5 mph - N/A   Clear
3:35 PM 78.8 °F 32.0 °F 18% 30.18 in 10.0 mi NNE 5.8 mph - N/A   Clear
4:15 PM 78.8 °F 30.2 °F 17% 30.18 in 10.0 mi Calm Calm - N/A   Clear
4:55 PM 78.8 °F 32.0 °F 18% 30.17 in 10.0 mi North 3.5 mph - N/A   Clear
5:15 PM 78.8 °F 30.2 °F 17% 30.17 in 10.0 mi Calm Calm - N/A   Clear
5:35 PM 78.8 °F 30.2 °F 17% 30.17 in 10.0 mi Calm Calm - N/A   Clear
5:55 PM 78.8 °F 30.2 °F 17% 30.17 in 10.0 mi Calm Calm - N/A   Clear
6:15 PM 77.0 °F 30.2 °F 18% 30.17 in 10.0 mi Calm Calm - N/A   Clear
6:35 PM 77.0 °F 32.0 °F 19% 30.17 in 10.0 mi Calm Calm - N/A   Clear
6:55 PM 73.4 °F 32.0 °F 22% 30.17 in 10.0 mi ENE 3.5 mph - N/A   Clear
7:15 PM 71.6 °F 32.0 °F 23% 30.18 in 10.0 mi ENE 4.6 mph - N/A   Clear
7:35 PM 69.8 °F 32.0 °F 25% 30.18 in 10.0 mi East 3.5 mph - N/A   Clear
7:55 PM 69.8 °F 32.0 °F 25% 30.18 in 10.0 mi East 3.5 mph - N/A   Clear
8:15 PM 66.2 °F 33.8 °F 30% 30.18 in 10.0 mi Calm Calm - N/A   Clear
8:35 PM 66.2 °F 33.8 °F 30% 30.19 in 10.0 mi Calm Calm - N/A   Clear
8:55 PM 64.4 °F 33.8 °F 32% 30.19 in 10.0 mi NNE 3.5 mph - N/A   Clear
9:15 PM 64.4 °F 33.8 °F 32% 30.20 in 10.0 mi Calm Calm - N/A   Clear
9:35 PM 62.6 °F 33.8 °F 34% 30.19 in 10.0 mi Calm Calm - N/A   Clear
10:15 PM 59.0 °F 37.4 °F 45% 30.20 in 10.0 mi Calm Calm - N/A   Clear
10:35 PM 59.0 °F 35.6 °F 42% 30.20 in 10.0 mi Calm Calm - N/A   Clear
10:55 PM 55.4 °F 39.2 °F 54% 30.20 in 10.0 mi Calm Calm - N/A   Clear
11:15 PM 55.4 °F 42.8 °F 63% 30.20 in 10.0 mi Calm Calm - N/A   Clear
11:35 PM 55.4 °F 41.0 °F 58% 30.20 in 10.0 mi Calm Calm - N/A   Clear
11:55 PM 53.6 °F 42.8 °F 67% 30.20 in 10.0 mi Calm Calm - N/A   Clear